Location: Newark
(34.1333°N, 7.9667°W)
Time: 00:12:05
(UTC+00:00)

Envisat - Pass Details

Date: 02 October 2021
Orbit: 764 x 766 km, 98.2° (Epoch: 17 October)

Event Time Altitude Azimuth Distance (km) Brightness Sun altitude
Rises 04:40:15 0° 29° (NNE) 3,233 6.8 -22.8°
Reaches altitude 10° 04:43:02 10° 44° (NE) 2,303 6.2 -22.3°
Maximum altitude 04:46:58 23° 95° (E) 1,602 5.4 -21.5°
Drops below altitude 10° 04:50:53 10° 146° (SE) 2,291 5.7 -20.7°
Sets 04:53:39 0° 161° (SSE) 3,213 6.3 -20.1°
